Content
SEND FEEDBACK

Daily
Averages
Monthly
Summary
United States of America

HAYWOOD, WEST VIRGINIA


Home > North America > United States > West Virginia
Elevation: 1089 feet     Latitude: 39 16N     Longitude: 080 21W

WEATHER
 
SELECT A DAY
Number of Records: 203,360;   Date Range: 1/1/95 - 9/28/14
 
SHARE

PRINT THIS DATA

[ ← Previous Day ]
WEATHER ALMANAC - MARCH 29, 2014
[ Next Day → ]
[ °C ]   °F
Weather ElementAverageHighLow
Temperature48.1 °F62.1 °F (11:53 am)39.9 °F (5:53 am)
Dewpoint43.5 °F53.1 °F (1:53 pm)36 °F (3:53 am)
Humidity85 %93 % (3:53 pm)56 % (11:53 am)
Barometer29.77 in30.08 in (1:53 am)29.61 in (7:53 pm)
Wind Speed8.5 mph17.3 mph (9:32 pm)
Wind Gust24.2 mph (9:32 pm)
Weather ElementAverage
Visibility6.6 mi
Wind DirectionSSE (145.9 °)

Weather ElementTotal
Precipitation1.38 in
Heating Degree Days14 (Base 65)
Growing Degree Days1 (Base 50)
Averaged from 32 records on March 29, 2014
WEATHER CONDITIONS BREAKOUT
WIND DIRECTION BREAKOUT
WEATHER BY HOUR - MARCH 29, 2014
[ °C ]   °F
Local TimeTemperatureDewpointHumidityBarometerVisibilityWind DirectionWind SpeedGust SpeedPrecipitationEventsConditions
1:53 AM46.9 °F37.9 °F71 %30.08 in10.0 miNorth (350°)6.9 mphScattered Clouds
2:53 AM45.0 °F37.0 °F74 %30.04 in10.0 miNorth (360°)6.9 mphClear
3:53 AM43.0 °F36.0 °F76 %30.02 in10.0 miNorth (10°)4.6 mphClear
4:53 AM41.0 °F36.0 °F82 %29.99 in10.0 miNNE (20°)8.1 mphClear
5:53 AM39.9 °F36.0 °F86 %29.99 in10.0 miNNE (20°)6.9 mphClear
6:53 AM39.9 °F36.0 °F86 %29.99 in10.0 miNNE (30°)5.8 mphScattered Clouds
7:53 AM41.0 °F36.0 °F82 %29.98 in10.0 miNNE (30°)6.9 mphOvercast
8:53 AM42.1 °F37.9 °F85 %29.96 in10.0 miNNE (30°)9.2 mph0.00 inMostly Cloudy
9:53 AM45.0 °F39.0 °F80 %29.94 in10.0 miNorth (10°)5.8 mphOvercast
10:53 AM54.0 °F42.1 °F64 %29.90 in10.0 miNE (50°)4.6 mphMostly Cloudy
11:53 AM62.1 °F46.0 °F56 %29.84 in10.0 miESE (120°)6.9 mph0.00 inMostly Cloudy
12:53 PM60.1 °F48.9 °F67 %29.80 in7.0 miESE (110°)6.9 mph0.01 inRainLight Rain
1:53 PM57.9 °F53.1 °F84 %29.75 in3.0 miEast (80°)4.6 mph0.06 inRainRain
2:53 PM57.0 °F53.1 °F87 %29.70 in3.0 miEast (80°)9.2 mph0.12 inRainHeavy Rain
3:53 PM55.0 °F53.1 °F93 %29.68 in3.0 miNE (50°)6.9 mph0.09 inRainRain
4:53 PM53.1 °F50.0 °F89 %29.65 in3.0 miENE (70°)8.1 mph0.12 inRainLight Rain
5:53 PM52.0 °F48.9 °F89 %29.62 in3.0 miENE (60°)3.5 mph0.11 inRainLight Rain
6:09 PM52.0 °F50.0 °F93 %29.62 in3.0 miNE (40°)6.9 mph0.01 inRainLight Rain
6:25 PM51.1 °F48.9 °F92 %29.62 in4.0 miNNE (30°)8.1 mph0.03 inRainLight Rain
6:36 PM51.1 °F48.9 °F92 %29.62 in2.5 miNNE (20°)8.1 mph0.05 inRainRain
6:44 PM51.1 °F48.9 °F92 %29.62 in5.0 miNorth (10°)6.9 mph0.05 inRainLight Rain
6:53 PM51.1 °F48.0 °F89 %29.62 in9.0 miNNW (340°)5.8 mph0.05 inRainLight Rain
7:53 PM48.9 °F46.9 °F93 %29.61 in9.0 miNNE (20°)9.2 mph0.03 inRainLight Rain
8:53 PM48.0 °F46.0 °F93 %29.62 in3.0 miNorth (350°)9.2 mph0.07 inRainLight Rain
9:18 PM48.9 °F46.0 °F90 %29.65 in2.5 miWNW (300°)11.5 mph18.4 mph0.07 inRainHeavy Rain
9:32 PM45.0 °F42.1 °F90 %29.66 in4.0 miNNW (330°)17.3 mph24.2 mph0.10 inRainLight Rain
9:37 PM45.0 °F42.1 °F90 %29.67 in6.0 miNorth (350°)10.4 mph0.10 inRainLight Rain
9:43 PM45.0 °F42.1 °F90 %29.68 in5.0 miWest (280°)12.7 mph0.11 inRainRain
9:53 PM43.0 °F41.0 °F93 %29.68 in6.0 miWest (280°)17.3 mph21.9 mph0.13 inRainRain
10:00 PM42.1 °F39.0 °F89 %29.69 in8.0 miWest (280°)16.1 mph0.00 inRainLight Rain
10:53 PM41.0 °F39.0 °F93 %29.73 in7.0 miWest (280°)9.2 mph0.03 inRainRain
11:53 PM39.9 °F37.0 °F89 %29.75 in4.0 miWest (280°)10.4 mph0.04 inRainLight Rain
Hourly data recorded from KCKB, located miles away from Haywood, West Virginia







STORIES FROM OUR PARTNERS